Find Starlink 32533

NORAD ID: 61706 Int'l Des: 2024-195 Owner: SPXS Country: US Constellation: starlink operational
LEOCIRCULAR

Current View

Loading 3D Globe...

About Starlink 32533

Starlink 32533 (NORAD 61706) is a starlink constellation satellite (v2 mini) launched Oct 30, 2024 by SPXS of US. It operates in LEO, CIRCULAR orbit with a mass of 730.00 kg.

Upcoming Passes

Passes for default location (London). Set your location on the main map for personalized predictions.

Altitude History

Loading altitude history...

Two-Line Element Set

1 61706U 24195V 26265.18211173 .00000675 00000-0 31139-4 0 9995
2 61706 53.1608 317.8242 0001441 70.7625 289.3533 15.34387827107334
Epoch: Sep 22, 2026 • Age: 10 hours

Current Status

Altitude 467.1 km
Apogee / Perigee N/A
Velocity 7.64 km/s
Sub-Earth Point 48.03°N, 159.75°E
Launch Date Oct 30, 2024
Age 1.8 years
Type internet

Technical Details

Classification Payload
Mass 730.00 kg
Dry Mass 700.00 kg
Length 0.30 m
Span 29.00 m
Shape ? Box + pan
Manufacturer SPXS
Bus Type Starlink V2M
Phase Status In Orbit
Owner/State SPXS/US

Most Searched